Regional Weather Roundup
Issued by NWS

Home | Current Version | Previous Version | Graphics & Text | Print | Product List | Glossary On
Versions: 1 2 3 4 5 6 7 8 9 10 11 12 13 14 15 16 17 18 19 20 21 22 23 24 25 26 27 28 29 30 31 32 33 34 35 36 37 38 39 40 41 42 43 44 45 46 47 48 49 50
767
ASUS44 KLIX 300410
RWRLA
LOUISIANA WEATHER ROUNDUP
NATIONAL WEATHER SERVICE NEW ORLEANS LA
1100 PM CDT FRI AUG 29 2014

NOTE: "FAIR" INDICATES FEW OR NO CLOUDS BELOW 12,000 FEET WITH NO
      SIGNIFICANT WEATHER AND/OR OBSTRUCTIONS TO VISIBILITY.
      SKY/WX - SKY CONDITION AND SIGNIFICANT WEATHER.
      TMP - AIR TEMPERATURE.    DP   - DEWPOINT TEMPERATURE.
      RH  - RELATIVE HUMIDITY.  PRES - PRESSURE.
      HX  - HEAT INDEX.         WCI  - WIND CHILL INDEX.

*  THESE STATIONS ARE NOT NWS OR FAA STATIONS AND ARE NOT UNDER
   NWS QUALITY CONTROL.

LAZ040-048-061>063-065-066-069-300500-
SOUTHEAST LOUISIANA

CITY           SKY/WX    TMP DP  RH WIND       PRES   REMARKS
N.O. AUDUBON     N/A     78  74  86 MISG        N/A
N.O. INTL ARPT CLOUDY    77  71  82 SE6       30.01R
N.O. LAKEFRONT CLOUDY    79  74  84 SE10      30.02R
N.O. DOWNTOWN* FAIR      79  70  73 SE5       30.02R
SLIDELL        CLOUDY    78  75  90 CALM      30.01S
BATON ROUGE    CLOUDY    77  73  87 E6        30.00R
BOOTHVILLE     CLOUDY    79  77  94 SE6       30.04R
BELLE CHASSE   CLOUDY    79  73  82 SE6       30.01R
BOGALUSA*      FAIR      78  73  85 S5        30.03S
GALLIANO*      NOT AVBL
NEW ROADS*     FAIR      76  73  90 SE7       30.00R
GONZALES*      FAIR      76  76 100 SE3       30.00R
HAMMOND*       CLOUDY    77  73  88 CALM      30.03R
HOUMA*         CLOUDY    75  73  92 CALM      30.00S
PORT FOURCHON* PTCLDY    81  73  78 SE9G18    30.04R

$$

LAZ041-044-053-054-300500-
SOUTHWEST LOUISIANA

CITY           SKY/WX    TMP DP  RH WIND       PRES   REMARKS
LAKE CHARLES   CLOUDY    75  72  90 SE3       29.94R
LAFAYETTE      LGT RAIN  76  74  93 VRB5      29.97R
PATTERSON        N/A     73  72  94 S3        30.02F
SALT POINT       N/A     77  73  87 CALM      29.98F
NEW IBERIA     RAIN      77  74  90 SE12      29.98R
CHENAULT AIRPK CLOUDY    76  74  92 E5        29.96R

$$

LAZ027-028-300500-
CENTRAL LOUISIANA

CITY           SKY/WX    TMP DP  RH WIND       PRES   REMARKS
FORT POLK      LGT RAIN  76  74  93 SE7       29.96R
ALEXANDRIA INT CLOUDY    77  73  87 SE3       29.94R
ALEXANDRIA     CLOUDY    78  73  84 S3        29.97R

$$

LAZ001-002-300500-
NORTHWEST LOUISIANA

CITY           SKY/WX    TMP DP  RH WIND       PRES   REMARKS
SHREVEPORT     CLOUDY    77  73  87 CALM      29.93S
BARKSDALE AFB  CLOUDY    75  74  96 NE2       29.94R
DTN SHREVEPORT CLOUDY    77  74  90 E3        29.94R

$$

LAZ014-016-300500-
NORTHEAST LOUISIANA

CITY           SKY/WX    TMP DP  RH WIND       PRES   REMARKS
MONROE         CLOUDY    79  74  84 S3        29.97R
TALLULAH       CLOUDY    80  73  79 S8        29.99R

$$




USA.gov is the U.S. government's official web portal to all federal, state and local government web resources and services.